Regional Weather Roundup
Issued by NWS

Home | Current Version | Previous Version | Text Only | Print | Product List | Glossary Off
Versions: 1 2 3 4 5 6 7 8 9 10 11 12 13 14 15 16 17 18 19 20 21 22 23 24 25 26 27 28 29 30 31 32 33 34 35 36 37 38 39 40 41 42 43 44 45 46 47 48 49 50

000
ASUS43 KMPX 200710
RWRMN
WEATHER ROUNDUP FOR MINNESOTA
NATIONAL WEATHER SERVICE TWIN CITIES/CHANHASSEN MN
200 AM CDT FRI OCT 20 2017


NOTE: "FAIR" INDICATES FEW OR NO CLOUDS BELOW 12,000 FEET WITH NO
SIGNIFICANT WEATHER AND/OR OBSTRUCTIONS TO VISIBILITY. N/A MEANS
CURRENT SKY AND/OR WEATHER CONDITIONS ARE NOT AVAILABLE.

MNZ060>063-068>070-200800-
   Twin Cities Metro

CITY           SKY/WX    TMP DP  RH WIND       PRES   REMARKS
TWIN CITIES    FAIR      55  48  77 SE6       29.91F
ST PAUL        FAIR      52  45  77 SE5       29.93S
CRYSTAL        FAIR      54  44  69 SE5       29.89F
BLAINE         FAIR      55  46  71 S6        29.90F
LAKEVILLE      FAIR      55  48  76 S6        29.92S
EDEN PRAIRIE   FAIR      59  50  72 S7        29.90S
SOUTH ST PAUL  FAIR      55  45  67 S3        29.92S
LAKE ELMO      FAIR      55  46  71 S6        29.93S
$$
MNZ001>005-007-008-013>017-022>024-027-028-200800-
   Northwest Minnesota

CITY           SKY/WX    TMP DP  RH WIND       PRES   REMARKS
BEMIDJI        FAIR      55  43  64 S7        29.77F
HALLOCK        FAIR      48  37  66 SE9       29.67F
ROSEAU         FAIR      50  43  76 S6        29.72S
WARROAD        FAIR      52  43  71 CALM      29.73S
THIEF RVR FALL FAIR      52  43  71 SE7       29.72F
CROOKSTON      FAIR      55  46  71 S9        29.70F
FOSSTON        FAIR      55  45  67 S13       29.74F
DETROIT LAKES  FAIR      54  46  76 SE8       29.78S
MOORHEAD       FAIR      55  46  71 SE15      29.72F
PARK RAPIDS    FAIR      49  42  77 SE8       29.80F
MAHNOMEN       FAIR      58  47  66 S9        29.74F
$$
MNZ006-009>011-018-025>026-200800-
   North Central Minnesota

CITY           SKY/WX    TMP DP  RH WIND       PRES   REMARKS
BAUDETTE       FAIR      49  39  68 SE5       29.75S
FLAG ISLAND    FAIR      52  46  82 SE6       29.71S
INTL FALLS     FAIR      52  36  54 VRB3      29.78S
WASKISH        FAIR      52  41  66 CALM      29.77S
BIG FORK       FAIR      55  41  58 S5        29.81S
LONGVILLE      FAIR      54  43  66 S5          N/A
GRAND RAPIDS   FAIR      55  41  59 S13       29.85S
CRANE LAKE     FAIR      43  36  75 CALM      29.83F
ORR            FAIR      52  34  50 CALM      29.80F
COOK           FAIR      57  37  47 S5        29.84S
WALKER         FAIR      57  44  61 S8        29.80S
$$
MNZ012-019>021-037-200800-
   Northeast Minnesota

CITY           SKY/WX    TMP DP  RH WIND       PRES   REMARKS
DULUTH         FAIR      55  38  52 SW9       29.89F
ELY            FAIR      55  36  47 S5        29.86S
HIBBING        FAIR      36  32  85 CALM      29.85F
EVELETH        FAIR      52  41  65 SW5       29.87S
DULUTH HARBOR  FAIR      52  46  82 CALM      29.89F
TWO HARBORS    FAIR      43  37  81 CALM      29.87F
SILVER BAY     FAIR      37  36  93 CALM      29.88F
GRAND MARAIS     N/A     43  39  86 CALM      29.89F
G MARAIS ARPRT FAIR      50  34  53 SW5       29.91S
$$
MNZ029>031-032-039>041-046>048-054>057-064-200800-
   West Central Minnesota

CITY           SKY/WX    TMP DP  RH WIND       PRES   REMARKS
FERGUS FALLS   FAIR      55  46  71 S12       29.77F
WHEATON        FAIR      54  46  76 SE10      29.77F
MORRIS         FAIR      52  46  82 SE9       29.79F
ALEXANDRIA     FAIR      56  48  74 S10       29.83F
ELBOW LAKE     FAIR      53  47  80 E10       29.78F
WADENA         FAIR      52  45  76 S6        29.80F
GLENWOOD       FAIR      54  48  82 SE8       29.84S
APPLETON       FAIR      54  46  76 SE6       29.80S
BENSON         FAIR      54  46  76 S12       29.83F
ORTONVILLE     FAIR      52  46  82 NE7       29.78S
MADISON        FAIR      66  52  59 S9        29.79F
WILLMAR        FAIR      52  48  87 SE6       29.86F
$$
MNZ033>034-036-042>043-049>051-058-059-200800-
   Central Minnesota

CITY           SKY/WX    TMP DP  RH WIND       PRES   REMARKS
ST CLOUD       FAIR      51  46  83 SE8       29.88S
SAUK CENTRE    FAIR      51  46  83 SE8       29.85S
PAYNESVILLE    FAIR      56  49  79 S7        29.86F
AITKIN         FAIR      54  41  62 S8        29.84F
PINE RIVER     FAIR      46  39  76 S5        29.86F
BRAINERD       FAIR      54  43  66 S12       29.85F
STAPLES        FAIR      52  43  71 S6        29.82F
LONG PRAIRIE   FAIR      50  45  81 SE8       29.84F
LITTLE FALLS   FAIR      52  37  58 SE6       29.86S
LITCHFIELD     FAIR      57  52  82 CALM      29.87F
BUFFALO        FAIR      56  48  72 S5        29.89F
MAPLE LAKE     FAIR      54  48  81 S5        29.89S
HUTCHINSON     FAIR      57  52  81 S7        29.89S
$$
MNZ037-044-045-052-053-200800-
   East Central Minnesota

CITY           SKY/WX    TMP DP  RH WIND       PRES   REMARKS
PRINCETON      FAIR      48  43  81 E3        29.89F
MORA           FAIR      39  36  87 CALM      29.91F
CAMBRIDGE      FAIR      55  43  62 CALM      29.90S
RUSH CITY      MOCLDY    53  40  63 S5        29.91S
MOOSE LAKE     FAIR      52  37  58 S5        29.87F
HINCKLEY       FAIR      45  37  76 CALM      29.91S
CLOQUET        FAIR      55  36  47 S8        29.88F
MCGREGOR       FAIR      52  39  62 S6        29.87F
$$
MNZ071>073-080-081-089-090-097-098-200800-
   Southwest Minnesota

CITY           SKY/WX    TMP DP  RH WIND       PRES   REMARKS
MONTEVIDEO     FAIR      54  48  82 S6        29.82S
GRANITE FALLS  FAIR      57  51  80 SE7       29.85S
CANBY          FAIR      67  50  53 SW20G26   29.80S
MARSHALL       FAIR      64  51  62 SW21G29   29.81F
REDWOOD FALLS  FAIR      54  48  80 S9        29.86S
OLIVIA         FAIR      54  50  87 S9        29.85F
PIPESTONE      FAIR      61  48  63 S15       29.87S
WORTHINGTON    FAIR      61  50  67 S15G21    29.91S
JACKSON        FAIR      55  50  82 S10       29.92S
TRACY          FAIR      64  52  67 SW18G24   29.85S
SLAYTON        FAIR      62  51  66 S17G24    29.89S
$$
MNZ065>067-074>077-082>085-091>093-200800-
   South Central Minnesota

CITY           SKY/WX    TMP DP  RH WIND       PRES   REMARKS
MANKATO        FAIR      58  51  78 S9        29.92S
NEW ULM        FAIR      54  48  82 S9        29.89S
ST JAMES       FAIR      57  52  82 S10       29.91S
FAIRMONT       FAIR      55  50  83 S9        29.93S
GLENCOE        FAIR      58  51  77 S5        29.89S
FARIBAULT      FAIR      55  48  76 S9        29.94S
OWATONNA       FAIR      57  50  77 S12       29.95S
WASECA         FAIR      57  50  77 S9        29.95S
$$
MNZ078>079-086>088-094>096-200800-
   Southeast Minnesota

CITY           SKY/WX    TMP DP  RH WIND       PRES   REMARKS
ROCHESTER      FAIR      54  49  83 S9        29.99F
RED WING       FAIR      55  45  67 SE7       29.95S
STANTON        FAIR      61  51  69 S10G16    29.92S
DODGE CENTER   FAIR      57  48  72 S13       29.97S
WINONA         FAIR      57  46  67 SE6       30.00S
AUSTIN         FAIR      55  48  76 S6        29.98S
PRESTON        FAIR      56  48  74 S10       30.01S
$$
ABBREVIATIONS USED IN REMARKS
   TC - TEMPERATURES IN CELSIUS
  WCI - WIND CHILL INDEX
   HX - HEAT INDEX
  VSB - VISIBILITY
$$




USA.gov is the U.S. government's official web portal to all federal, state and local government web resources and services.